Theta_e
337 344 348 349 347 347 345 344 343 342 340 340 338 339 339 341 343 343 341 340 338 338 337 336 335 336 335 334 333 334 334 336 337 338 338 338 338 341 341 339 338 335 339
339 343 347 349 347 345 344 342 342 342 339 338 336 337 337 340 342 341 340 340 338 336 336 336 336 336 333 333 333 333 333 334 334 335 337 339 340 340 338 336 335 333 334
340 343 345 347 347 344 345 344 343 341 338 338 338 338 337 338 341 339 340 341 338 336 335 337 335 333 333 333 333 334 334 334 335 337 337 334 335 338 336 333 333 332 332
340 341 343 345 346 344 344 343 342 339 339 338 338 337 337 336 341 339 341 340 336 335 335 335 333 333 333 333 333 333 333 334 335 337 334 334 333 336 334 332 330 330 329
337 342 343 345 346 345 344 343 341 338 338 339 339 337 338 335 340 339 339 340 335 334 335 334 332 332 334 334 333 333 333 334 336 335 333 331 331 332 331 329 327 327 327
341 342 343 345 346 344 344 343 341 340 338 338 339 338 338 335 339 339 339 338 336 334 334 333 334 333 331 331 330 330 331 333 335 331 329 331 329 331 329 328 326 326 326
340 341 342 344 345 345 344 343 342 340 339 338 337 337 334 333 335 338 336 336 336 334 333 333 332 331 332 331 330 330 331 332 330 328 326 326 326 329 328 327 326 325 325
339 341 341 338 341 343 343 343 341 341 340 338 337 335 334 331 333 336 333 332 336 335 333 332 331 331 331 329 329 329 330 329 329 327 324 325 330 328 326 326 324 324 323
337 338 339 339 339 336 338 339 340 340 339 339 338 333 336 334 333 335 334 334 334 334 333 332 331 330 330 328 328 328 328 328 326 324 324 325 330 327 325 325 324 322 322
333 334 336 337 338 338 337 333 334 336 336 336 334 332 330 331 330 330 331 331 333 332 332 331 331 330 329 327 326 326 325 326 324 324 322 323 328 325 324 323 322 322 321
330 330 330 334 335 337 337 332 330 331 332 331 329 326 324 325 324 324 327 329 334 333 331 330 330 331 329 326 326 324 324 318 323 323 319 327 327 324 322 321 321 320 319
327 327 327 329 330 335 337 334 333 332 329 328 326 324 325 324 325 327 325 328 330 330 331 329 329 328 325 322 319 323 321 318 319 319 319 326 325 324 322 320 319 318 317
328 327 327 328 329 333 334 334 331 331 328 326 325 324 324 326 324 324 323 323 322 322 324 326 324 322 321 323 321 321 319 317 317 318 319 323 324 322 322 319 318 317 316
329 328 327 328 328 332 333 333 331 331 330 326 325 325 324 323 323 322 322 321 321 320 321 321 321 322 322 323 322 321 319 318 316 316 314 319 323 323 322 320 318 317 316
327 328 327 327 327 329 330 331 332 331 330 328 325 326 325 323 322 322 321 320 321 321 320 321 321 322 322 322 323 323 322 319 316 315 315 316 321 324 324 321 319 318 317
328 328 329 328 328 329 330 330 331 331 330 327 325 324 324 323 322 321 320 320 319 320 320 321 321 320 321 322 322 322 323 319 317 315 314 314 319 324 323 321 320 319 318
328 329 329 329 329 328 329 331 331 331 330 328 326 324 324 323 321 320 319 319 319 320 320 321 321 321 322 322 321 321 323 320 317 314 313 313 314 318 321 321 321 320 319
328 329 329 331 329 329 328 329 330 330 329 328 327 325 323 323 323 320 319 319 320 319 320 320 321 320 321 320 320 320 321 318 317 315 313 312 312 314 317 320 320 320 319
327 329 329 330 329 329 329 329 329 329 329 327 326 325 324 323 323 321 319 318 319 319 319 321 320 319 319 319 320 319 318 316 315 316 313 312 312 312 312 316 318 318 317
327 328 329 330 330 329 330 329 328 330 329 330 328 326 325 324 324 322 320 319 319 319 319 320 320 320 319 319 319 317 316 316 315 314 312 313 312 312 311 310 310 308 313
324 326 327 328 330 329 328 327 327 326 328 328 329 327 326 324 325 323 322 321 321 319 319 320 320 319 317 320 318 315 313 314 314 314 313 312 311 311 310 309 307 306 307
323 325 325 327 329 330 330 329 329 328 328 328 329 329 327 325 324 324 323 322 321 320 319 320 319 317 317 320 315 313 309 309 312 312 312 313 311 311 309 308 307 306 305
321 323 326 327 327 330 330 330 329 328 326 326 327 327 327 326 325 324 324 323 322 322 320 320 319 317 313 317 319 314 308 302 307 309 309 311 310 309 309 307 306 305 304
318 322 324 326 327 329 330 329 328 326 324 326 326 327 327 328 326 325 324 324 323 323 321 321 321 319 316 313 316 318 318 313 305 304 308 308 308 309 307 307 305 304 303
314 317 322 324 326 328 329 329 328 326 326 326 326 326 326 327 327 327 325 324 323 324 323 322 319 320 320 318 314 312 314 316 315 311 307 309 308 308 307 307 305 304 302
309 315 318 321 323 326 328 329 328 327 326 325 325 325 326 327 327 327 326 325 324 324 323 323 322 320 320 320 319 317 313 309 311 311 310 310 310 312 309 305 306 304 301
Wind_Speed
11 9 11 13 13 14 14 14 13 12 12 12 12 12 14 14 15 15 13 15 16 17 16 17 16 17 17 16 16 15 13 14 14 13 13 13 12 15 20 20 20 15 20
14 10 10 12 14 13 14 14 13 11 11 12 11 12 13 13 14 16 13 16 17 15 15 16 15 15 14 14 13 12 11 11 11 8 6 10 13 18 20 20 18 14 17
15 11 9 11 13 13 13 13 11 12 12 11 12 11 13 10 14 14 11 15 16 16 14 15 14 14 13 12 12 10 8 6 7 7 6 7 11 19 18 17 17 17 17
14 11 10 11 14 12 12 12 10 11 11 10 12 11 12 10 13 13 15 15 15 14 13 14 13 12 12 10 10 9 8 10 11 13 3 8 12 18 16 17 17 18 18
8 12 12 12 13 13 11 11 11 11 11 11 12 10 13 12 11 13 12 14 13 13 12 13 12 10 11 10 9 9 9 11 11 11 9 10 9 13 16 17 15 16 16
13 13 11 13 14 13 12 10 10 12 10 13 12 12 11 10 10 12 12 14 13 12 13 11 11 10 10 10 10 9 10 15 11 8 8 12 9 14 16 16 16 16 15
11 11 9 10 12 12 11 11 11 11 10 13 11 11 11 10 9 10 10 10 12 11 10 10 10 10 10 9 9 8 11 12 8 7 8 8 7 14 15 15 15 14 14
9 10 10 8 9 10 11 11 10 8 11 11 11 10 12 9 7 8 10 7 8 11 10 9 9 9 8 8 7 7 8 9 8 7 7 6 11 13 13 13 13 13 13
10 10 10 8 7 8 10 10 10 10 9 9 11 9 10 10 7 8 8 6 8 8 8 7 7 7 7 6 6 8 9 9 7 6 8 5 11 11 11 11 11 12 11
7 7 10 9 8 6 6 9 9 9 9 8 9 9 8 8 7 8 6 8 9 7 7 6 5 6 5 4 3 7 9 10 7 6 5 3 11 9 9 10 10 10 10
7 6 6 9 10 9 9 7 7 8 7 7 7 8 7 4 5 6 3 9 8 6 5 5 5 5 6 4 2 6 7 2 4 5 3 6 8 8 7 8 8 8 7
9 7 7 7 8 10 8 9 6 6 4 5 6 6 4 6 5 7 6 7 7 5 4 5 5 6 7 4 3 5 1 2 4 4 3 6 6 5 7 6 6 6 5
8 6 7 7 7 10 9 6 3 4 4 4 7 7 6 5 4 4 3 2 3 4 3 4 4 4 5 4 5 3 4 3 3 3 4 7 3 3 7 5 4 4 3
10 9 8 7 6 10 7 6 5 5 4 4 5 8 5 3 4 4 4 5 4 4 5 5 4 5 2 2 1 1 4 2 2 3 2 2 8 5 5 6 5 4 3
10 9 9 8 7 7 9 6 5 6 4 5 5 6 4 4 5 5 5 5 5 5 5 4 4 4 4 4 4 3 4 5 3 2 1 4 5 8 10 7 6 5 5
8 9 10 9 8 7 8 9 7 6 5 5 5 5 6 5 5 5 4 4 5 5 5 5 5 4 4 4 4 4 3 4 4 4 2 2 6 7 8 7 7 6 6
11 7 11 12 9 9 10 10 9 8 8 6 5 7 8 6 6 6 5 5 5 5 6 4 3 3 3 3 4 5 4 5 4 6 4 3 4 8 7 9 8 8 9
12 13 8 11 10 8 7 6 6 6 6 6 5 6 9 8 7 6 5 5 5 5 4 3 4 4 4 4 3 4 4 5 5 5 5 5 4 4 9 11 11 11 11
13 15 14 12 12 11 8 6 6 7 6 5 5 5 9 10 9 6 5 5 6 5 4 4 4 4 4 4 4 3 4 4 5 4 7 6 7 6 4 10 12 10 11
13 14 13 11 13 13 8 6 5 7 7 7 6 6 8 8 9 7 5 6 5 4 5 3 5 4 4 4 3 2 2 4 4 5 6 5 6 6 6 5 5 5 11
10 12 13 14 15 11 10 9 9 9 8 7 8 9 11 9 10 8 6 6 6 5 6 6 5 6 4 4 2 1 4 6 7 6 5 5 6 6 7 6 5 5 6
14 13 9 13 15 14 11 10 9 8 7 9 8 9 11 11 11 11 10 8 7 5 7 7 6 4 4 4 3 2 3 4 6 7 5 6 7 5 6 7 6 7 6
14 15 15 14 13 15 15 9 7 5 4 6 10 10 10 12 12 12 13 10 8 8 8 8 7 8 5 4 8 5 3 5 2 2 7 6 6 5 5 6 8 7 7
15 13 14 14 14 13 15 13 15 13 12 11 10 9 11 13 13 13 13 13 11 8 9 9 7 6 5 6 3 8 10 3 2 4 2 4 4 6 7 6 6 7 8
11 12 13 14 15 16 15 17 13 15 11 9 10 12 12 12 15 14 14 13 12 10 11 11 7 11 8 8 5 3 7 8 7 6 7 5 3 4 6 6 6 8 10
0 7 8 11 14 15 16 17 19 18 15 11 11 11 10 10 12 16 15 15 14 13 13 12 13 12 12 11 9 8 6 5 6 6 8 8 8 6 5 5 6 7 6
Wind_Direction
111 122 126 120 108 99 94 87 84 84 90 97 94 94 99 83 85 88 87 91 83 82 84 81 81 83 80 80 74 74 72 71 65 66 72 68 63 70 67 64 56 51 48
122 127 125 122 113 107 102 97 93 93 93 94 100 105 98 97 96 93 86 97 93 90 88 89 88 84 86 83 75 72 67 35 24 27 54 73 73 66 58 52 55 53 53
119 127 130 123 116 113 109 107 103 95 96 103 96 94 104 100 94 93 94 102 96 95 96 94 92 88 80 76 75 69 52 36 13 344 16 80 69 61 59 56 53 58 60
125 144 131 124 121 120 115 115 108 102 100 102 111 103 99 109 100 97 96 101 96 98 102 102 94 85 82 76 68 47 25 19 2 354 77 68 65 56 52 52 56 61 60
129 113 125 130 129 126 122 121 123 112 111 106 105 105 113 117 97 104 104 100 101 110 108 95 90 86 76 65 51 27 8 9 355 63 58 61 59 59 54 61 61 61 63
108 112 127 136 135 135 133 129 127 124 122 118 114 106 101 117 97 99 101 106 106 110 103 108 89 84 73 59 44 16 351 14 91 57 59 66 64 62 60 64 63 64 65
110 120 131 141 140 142 141 140 133 129 126 119 116 114 112 124 119 113 110 106 120 110 108 99 93 82 69 55 41 17 356 12 89 79 69 65 65 60 63 63 63 64 65
127 144 135 143 144 147 148 143 137 127 126 121 114 118 115 125 131 99 112 112 111 120 117 107 95 84 72 57 38 14 8 2 100 73 82 75 69 67 63 66 68 67 67
161 139 141 154 158 152 156 148 143 131 123 126 134 134 129 130 145 106 126 144 104 108 112 112 110 101 86 63 30 1 356 7 70 71 70 63 72 59 68 68 69 68 68
132 151 155 155 155 167 154 150 142 143 140 141 129 131 122 125 146 154 155 156 136 129 124 116 123 135 119 92 21 339 341 337 80 79 66 50 75 59 71 70 67 68 69
144 181 175 159 166 166 157 150 137 139 139 132 123 123 130 140 159 177 197 170 133 134 140 140 136 148 150 149 235 290 324 346 99 102 93 75 82 90 70 73 75 74 73
158 188 181 172 171 145 155 151 160 151 160 168 155 162 191 163 189 179 132 130 135 150 165 178 173 190 189 194 210 247 236 336 124 105 95 68 106 101 104 87 86 84 77
176 173 185 178 184 148 147 167 153 164 171 183 177 171 219 164 145 139 136 152 158 194 205 191 205 229 225 221 188 204 115 48 41 89 109 107 85 148 129 127 121 115 112
209 174 183 183 187 152 153 166 158 172 192 179 180 182 200 155 157 182 160 184 198 195 227 204 201 226 192 253 316 62 113 96 60 87 117 198 154 188 178 162 165 171 167
206 182 173 185 187 169 157 163 172 186 192 184 178 182 179 174 172 195 182 182 195 191 219 210 230 185 224 232 213 207 213 148 136 138 183 239 249 189 189 197 198 204 207
220 191 176 186 188 185 165 174 179 186 195 189 174 179 192 182 184 198 198 195 191 205 211 207 205 199 223 225 234 217 217 148 180 164 208 230 258 235 209 219 228 233 238
217 217 184 184 192 192 189 180 183 186 196 185 177 177 182 201 192 189 191 196 204 207 212 213 236 201 251 220 232 243 188 178 194 186 198 222 227 239 242 242 245 245 247
189 220 200 186 189 201 200 193 189 186 193 184 177 174 179 193 206 195 189 195 201 197 192 198 206 218 224 232 216 234 194 181 195 211 197 207 223 214 220 226 236 239 244
193 207 208 191 188 197 207 190 190 192 190 191 184 189 188 192 199 191 196 204 194 192 192 196 217 196 212 219 232 218 196 198 211 222 213 211 215 219 209 219 219 219 237
197 212 201 197 188 192 200 206 197 196 203 194 194 194 191 197 197 198 194 205 198 187 197 195 208 225 195 213 211 193 245 239 222 233 228 218 218 210 214 216 199 211 221
191 210 200 194 193 184 198 202 208 202 199 204 205 194 195 192 197 200 206 201 200 192 191 197 198 208 235 194 135 273 264 240 236 226 233 222 223 209 203 203 192 201 217
194 204 211 204 194 191 194 204 208 208 207 203 210 210 196 195 193 199 202 207 198 190 199 199 196 193 200 183 171 189 277 294 248 229 218 225 218 207 208 207 202 207 208
197 200 207 210 206 200 201 191 203 199 207 200 212 210 205 202 199 200 202 203 203 195 203 206 200 188 194 191 193 193 216 237 256 212 222 221 217 211 216 207 210 206 213
204 197 206 205 209 209 198 202 200 204 206 214 212 212 208 204 209 206 206 203 206 202 203 203 198 196 173 199 198 213 232 187 227 312 309 258 228 214 221 218 200 208 213
211 201 203 203 206 207 204 205 209 210 212 207 210 213 207 208 209 211 206 208 208 206 210 201 192 202 202 204 193 167 224 235 233 239 275 253 245 225 224 216 197 215 220
57 202 201 197 209 208 207 208 211 214 211 211 207 210 208 208 209 210 206 207 211 211 209 205 205 204 206 211 209 203 189 180 199 209 235 248 250 243 215 218 208 223 217